Voltar ao catálogo

STARLINK-34043

AtivoComunicaçõesVLEO
NORAD 63823·PAYLOAD·🇺🇸 United States

Lançado May 4, 2025 de Cape Canaveral Space Force Station

Loading…

Próximas Passagens (próximas 24 horas)

TLE

AtualizadoSource: CelesTrak SupGP

Época: Sep 14, 2026, 20:49 UTC

1 63823C 25092V   26257.86784722 -.00000119  00000+0 -43190-5 0  2577
2 63823  43.0000 180.1191 0001539 263.4114  88.1073 15.27582821    10

Acompanhe STARLINK-34043 em tempo real com AllMySat

Download on the App Store